カタログに戻る

GEOS 2

運用中気象GEO
NORAD 10981·PAYLOAD·🇪🇺 EU

打ち上げ Jul 14, 1978 から Cape Canaveral Space Force Station

Loading…

TLE

最新Source: Space-Track

元期: Sep 14, 2026, 15:28 UTC

1 10981U 78071A   26257.64461317 -.00000015  00000-0  00000-0 0  9993
2 10981   5.3541 285.7189 0005038 353.3544 206.5204  0.99374780174886

AllMySatでGEOS 2をリアルタイム追跡

Download on the App Store